Regional Weather Roundup
Issued by NWS

Home | Current Version | Previous Version | Text Only | Print | Product List | Glossary Off
Versions: 1 2 3 4 5 6 7 8 9 10 11 12 13 14 15 16 17 18 19 20 21 22 23 24 25 26 27 28 29 30 31 32 33 34 35 36 37 38 39 40 41 42 43 44 45 46 47

000
ASUS45 KTFX 292210
RWRMT
MONTANA REGIONAL WEATHER ROUNDUP
NATIONAL WEATHER SERVICE GREAT FALLS MT
400 PM MDT MON JUN 29 2015

NOTE: "FAIR" INDICATES FEW OR NO CLOUDS BELOW 12000 FEET WITH NO
SIGNIFICANT WEATHER AND/OR OBSTRUCTIONS TO VISIBILITY.

MTZ001>007-043-292300-
WEST OF THE DIVIDE

CITY           SKY/WX    TMP DP  RH WIND       PRES   REMARKS
KALISPELL      CLOUDY    85  53  33 SE3       30.00F
MISSOULA       PTSUNNY   93  47  20 N3        30.00F
BUTTE          LGT RAIN  77  57  50 N15G21    30.18R
MULLAN PASS    PTSUNNY   75  53  46 VRB3      30.23F
DEER LODGE       N/A     88  48  25 E7        30.13F
EUREKA           N/A     90  54  29 W7        29.96F
HAMILTON         N/A     91  55  29 N17       30.00F
PLAINS           N/A     88  55  32 N1        29.98F
RONAN            N/A     86  61  42 CALM      30.05F
THOMPSON FALLS   N/A     90  55  30 E3        30.00F
$$

MTZ008-052>055-292300-
SOUTHWEST MONTANA

CITY           SKY/WX    TMP DP  RH WIND       PRES   REMARKS
BOZEMAN        MOSUNNY   95  47  19 N9        30.03F HX  91
DILLON         CLOUDY    73  54  51 S31G44    30.18S
W YELLOWSTONE  MOSUNNY   86  39  19 S6        30.24F
THREE FORKS      N/A     95  43  16 S1        30.02F HX  91
TWIN BRIDGES     N/A     83  56  39 S28       30.14R
$$

MTZ009-010-012-014-046-048-049-054-292300-
EAST SLOPES AND CENTRAL MONTANA

CITY           SKY/WX    TMP DP  RH WIND       PRES   REMARKS
CUT BANK       CLOUDY    87  50  27 CALM      30.04F
GREAT FALLS    CLOUDY    94  50  22 NW13      30.02S HX  91
HELENA         PTSUNNY   97  50  20 N8        30.00F HX  94
CONRAD           N/A     85  67  54 W2        30.08R
$$

MTZ011-013-016-021-045-047-050-051-292300-
NORTH CENTRAL MONTANA

CITY           SKY/WX    TMP DP  RH WIND       PRES   REMARKS
HAVRE          PTSUNNY   95  51  22 E17       29.94F HX  92
LEWISTOWN      MOSUNNY   95  49  20 E14       30.04F HX  92
CHINOOK          N/A     97  46  17 E10       29.95F HX  93
FORT BENTON      N/A     95  52  23 NE6       29.96S HX  92
$$

MTZ017>020-022>027-061-062-292300-
NORTHEAST MONTANA

CITY           SKY/WX    TMP DP  RH WIND       PRES   REMARKS
GLASGOW        SUNNY     98  45  16 N9G20     29.95F HX  94
JORDAN           N/A     97  40  14 NE8       29.99F HX  92
SIDNEY         SUNNY     97  50  20 W10G17    29.92F HX  94
WOLF POINT     SUNNY     99  53  21 NE8G20    29.94S HX  96
MALTA            N/A     99  50  19 NE5       29.93F HX  96
PLENTYWOOD       N/A     90  54  29 N12       29.96S
POPLAR           N/A     93  54  26 NW14G20   29.93S HX  91
SCOBEY           N/A     90  52  27 N13       29.98S
$$

MTZ028>42-056>058-292300-
SOUTHCENTRAL AND SOUTHEAST MONTANA

CITY           SKY/WX    TMP DP  RH WIND       PRES   REMARKS
BAKER          MOSUNNY   93  53  25 W15G21    30.00F HX  90
BILLINGS       MOSUNNY   96  39  13 E9        30.04F HX  91
LIVINGSTON     SUNNY     98  47  17 E15       30.04F HX  94
MILES CITY     SUNNY     98  47  17 W10G20    29.97F HX  94
BIG TIMBER       N/A     93  46  20 E13       30.06F
EKALAKA          N/A     90  53  28 W8        30.03F
FORSYTH          N/A     99  48  18 N8        29.97F HX  95
LAUREL           N/A     97  48  18 NE5       30.02F HX  93
ROUNDUP          N/A     96  43  16 SW1       29.94F HX  92
$$

REGIONAL REPORTS...DAKOTAS

CITY           SKY/WX    TMP DP  RH WIND       PRES   REMARKS
WILLISTON      SUNNY     99  52  20 NW14      29.91F HX  96
MINOT          MOSUNNY   89  56  32 NW7       29.91F
DICKINSON      SUNNY     91  60  35 W10       29.94F HX  90
BEACH          FAIR      93  48  21 NW15G23   29.98F HX  90
CROSBY         FAIR      86  55  35 N7        29.94F
BISMARCK       MOSUNNY   92  54  27 NW7       29.93F HX  90
GRAND FORKS    CLOUDY    76  65  68 NW8       29.86F
FARGO          SUNNY     76  63  64 NW12      29.86S
BUFFALO SD       N/A     93  55  27 W13       29.96F HX  91
RAPID CITY     SUNNY     88  55  32 E7        30.05F
$$

REGIONAL REPORTS...WYOMING/IDAHO/WASHINGTON

CITY           SKY/WX    TMP DP  RH WIND       PRES   REMARKS
GILLETTE       SUNNY     89  52  28 N9        30.13F
SHERIDAN       PTSUNNY   92  49  22 SW3       30.10F
BUFFALO WY     MOSUNNY   88  44  21 N10       30.19F
CODY           SUNNY     91  43  18 E6        30.13F
YELLOWSTONE LA   N/A     80  41  24 CALM      30.38F
IDAHO FALLS    SUNNY     99  48  17 S7        30.07F HX  95
SALMON         MOSUNNY   81  55  41 SW16G38   29.98R THUNDER
BOISE          MOSUNNY   99  53  21 W13       29.92F HX  96
SPOKANE        CLOUDY    88  58  36 CALM      29.97F
$$

REGIONAL REPORTS...ALBERTA

CITY           SKY/WX    TMP DP  RH WIND       PRES   REMARKS
EDMONTON       SUNNY     72  52  49 S16       30.06S
CALGARY        PTSUNNY   73  54  49 S7        30.11F
LETHBRIDGE     PTSUNNY   82  57  42 NE12G22   30.03F
MEDICINE HAT   CLOUDY    82  52  34 NE16G25   30.01F
WATERTON GATE    N/A    N/A N/A N/A NE7         N/A
CARDSTON         N/A     79  66  65 N6          N/A
ONEFOUR          N/A     93  39  15 SE7         N/A
$$

REGIONAL REPORTS...SASKATCHEWAN

CITY           SKY/WX    TMP DP  RH WIND       PRES   REMARKS
SWIFT CURRENT  PTSUNNY   81  48  32 NE22      30.06F HAZE
REGINA         CLOUDY    77  48  36 N17       30.01R SMOKE
SASKATOON      SMOKE     73  54  49 N5        30.08F VSB 3/4
CYPRESS HILLS    N/A     75  48  38 NE8         N/A
VAL MARIE        N/A     86  50  28 NE13        N/A
ASSINIBOIA       N/A     72  59  64 SW9         N/A
$$


USA.gov is the U.S. government's official web portal to all federal, state and local government web resources and services.